Home   Weather   Woodstock   Past weeks
Flag for USA

Past Weather in Woodstock, New York, USA — Yesterday and Last 2 Weeks

Now
54 °F

Heavy rain. Fog.


Feels Like: 49 °F
Forecast: 52 / 46 °F
Wind: 17 mph from Northwest

Location: Dutchess County Airport

Current Time: Oct 17, 2019 at 12:13:17 am

Latest Report: Oct 16, 2019 at 11:17 pm


Visibility: 2 mi

Pressure: 29.20 "Hg

Humidity: 93%

Dew Point: 52 °F

Location of WoodstockLocation

Past Weather in Woodstock — Graph

°F

Woodstock Temperature Yesterday

Maximum temperature yesterday: 63 °F (at 2:01 pm)
Minimum temperature yesterday: 36 °F (at 5:53 am)
Average temperature yesterday: 52 °F

High & Low Weather Summary for the Past Weeks

 TemperatureHumidityPressure
High86 °F (Oct 2, 1:53 pm)100% (Oct 8, 5:53 am)30.47 "Hg (Oct 8, 5:53 am)
Low33 °F (Oct 5, 6:53 am)33% (Oct 14, 5:53 pm)29.19 "Hg (Oct 16, 10:33 pm)
Average56 °F73%30.09 "Hg
* Reported Oct 1 11:53 pm — Oct 16 11:05 pm, Woodstock. Weather by CustomWeather, © 2019

Note: Actual official high and low records may vary slightly from our data, if they occured in-between our weather recording intervals... More about our weather records

Advertising

Woodstock Weather History for the Previous 24 Hours

Scroll right to see more
 ConditionsComfort  
Time TempWeatherWind HumidityBarometerVisibility
11:05 pm
Wed, Oct 16
54 °FHeavy rain. Fog.15 mph93%29.20 "Hg1 mi
10:33 pm56 °FHeavy rain. Fog.8 mph93%29.19 "Hg1 mi
9:53 pm57 °FRain. Fog.9 mph90%29.20 "Hg2 mi
8:53 pm58 °FLight rain. Fog.12 mph87%29.26 "Hg5 mi
7:53 pm58 °FRain. Fog.15 mph87%29.37 "Hg4 mi
7:00 pm58 °FRain. Fog.9 mph87%29.48 "Hg4 mi
6:06 pm58 °FLight rain. Fog.8 mph90%29.55 "Hg2 mi
5:00 pm58 °FLight rain. Fog.9 mph93%29.60 "Hg5 mi
4:02 pm59 °FLight rain. Fog.10 mph87%29.66 "Hg2 mi
3:53 pm60 °FRain. Mostly cloudy.12 mph83%29.65 "Hg3 mi
2:53 pm63 °FMostly cloudy.15 mph68%29.67 "Hg10 mi
2:01 pm63 °FMostly cloudy.9 mph68%29.72 "Hg10 mi
12:53 pm62 °FMostly cloudy.12 mph65%29.78 "Hg10 mi
12:11 pm62 °FMostly cloudy.9 mph62%29.82 "Hg10 mi
11:53 am62 °FOvercast.6 mph62%29.82 "Hg10 mi
10:53 am59 °FOvercast.3 mph62%29.86 "Hg10 mi
9:53 am56 °FBroken clouds.3 mph67%29.89 "Hg10 mi
8:53 am46 °FPartly sunny.No wind86%29.93 "Hg10 mi
7:53 am39 °FSunny.No wind93%29.95 "Hg10 mi
6:53 am37 °FClear.No wind89%29.99 "Hg10 mi
5:53 am36 °FClear.No wind92%29.98 "Hg10 mi
4:53 am37 °FClear.No wind93%29.99 "Hg10 mi
3:53 am38 °FClear.No wind90%30.02 "Hg10 mi
2:53 am39 °FClear.No wind89%30.04 "Hg10 mi
1:53 am39 °FClear.No wind89%30.05 "Hg10 mi
12:53 am39 °FClear.No wind89%30.04 "Hg10 mi
Weather by CustomWeather, © 2019

See weather overview